Powrót do katalogu

ONEWEB-0143

AktywnyŁącznośćPO
NORAD 47289·PAYLOAD·🇬🇧 United Kingdom

Wystrzelony Dec 18, 2020 z Vostochny Cosmodrome

Loading…

Następne Przeloty (najbliższe 24 godziny)

TLE

ŚwieżeSource: CelesTrak SupGP

Epoka: Sep 14, 2026, 14:44 UTC

1 47289C 20100AH  26257.61405509  .00004059  00000+0  11296-1 0  2579
2 47289  87.8981 332.9133 0001819 104.1513 358.3819 13.12438781    17

Śledź ONEWEB-0143 w czasie rzeczywistym z AllMySat

Download on the App Store